Wetterdaten: Freitag, 23.08.2013
Datum Zeit Temperatur Luftfeuchte Luftdruck Regen Wind Richtung Richtung Taupunkt Windchill Windben
23.08.2013 00:00 10,9 C 87 % 1020,7 hPa 0,0 l/m 0,0 km/h (0 Bft) NO 45 8,8 C 10,6 C 0,0 km/h (0 Bft)
23.08.2013 00:05 11,1 C 87 % 1020,5 hPa 0,0 l/m 0,0 km/h (0 Bft) SO 135 9,0 C 10,5 C 1,6 km/h (1 Bft)
23.08.2013 00:10 11,2 C 88 % 1020,5 hPa 0,0 l/m 0,2 km/h (0 Bft) NO 45 9,3 C 10,7 C 0,0 km/h (0 Bft)
23.08.2013 00:15 11,0 C 88 % 1020,5 hPa 0,0 l/m 0,2 km/h (0 Bft) O 90 9,1 C 10,7 C 0,0 km/h (0 Bft)
23.08.2013 00:20 11,2 C 88 % 1020,5 hPa 0,0 l/m 0,0 km/h (0 Bft) O 90 9,3 C 10,7 C 2,3 km/h (1 Bft)
23.08.2013 00:25 11,4 C 88 % 1020,4 hPa 0,0 l/m 0,6 km/h (0 Bft) O 90 9,5 C 11,0 C 2,1 km/h (1 Bft)
23.08.2013 00:30 11,4 C 88 % 1020,4 hPa 0,0 l/m 0,6 km/h (0 Bft) O-SO 112 9,5 C 11,1 C 3,1 km/h (1 Bft)
23.08.2013 00:35 11,1 C 88 % 1020,4 hPa 0,0 l/m 0,2 km/h (0 Bft) W-NW 292 9,2 C 11,0 C 0,0 km/h (0 Bft)
23.08.2013 00:40 10,8 C 88 % 1020,4 hPa 0,0 l/m 0,0 km/h (0 Bft) N-NW 337 8,9 C 10,6 C 0,0 km/h (0 Bft)
23.08.2013 00:45 10,7 C 88 % 1020,6 hPa 0,0 l/m 0,0 km/h (0 Bft) W-NW 292 8,8 C 10,4 C 0,0 km/h (0 Bft)
23.08.2013 00:50 10,5 C 88 % 1020,6 hPa 0,0 l/m 0,0 km/h (0 Bft) O-NO 67 8,6 C 10,3 C 0,0 km/h (0 Bft)
23.08.2013 00:55 10,4 C 88 % 1020,6 hPa 0,0 l/m 0,0 km/h (0 Bft) N-NO 22 8,5 C 10,3 C 0,0 km/h (0 Bft)
23.08.2013 01:00 10,2 C 88 % 1020,6 hPa 0,0 l/m 0,0 km/h (0 Bft) N-NO 22 8,3 C 10,1 C 0,0 km/h (0 Bft)
23.08.2013 01:05 10,2 C 88 % 1020,6 hPa 0,0 l/m 0,0 km/h (0 Bft) NO 45 8,3 C 10,1 C 0,0 km/h (0 Bft)
23.08.2013 01:10 10,2 C 88 % 1020,6 hPa 0,0 l/m 0,0 km/h (0 Bft) NO 45 8,3 C 10,0 C 0,0 km/h (0 Bft)
23.08.2013 01:15 10,2 C 88 % 1020,6 hPa 0,0 l/m 0,0 km/h (0 Bft) N-NO 22 8,3 C 10,0 C 0,0 km/h (0 Bft)
23.08.2013 01:20 10,2 C 89 % 1020,6 hPa 0,0 l/m 0,0 km/h (0 Bft) NO 45 8,5 C 9,9 C 0,0 km/h (0 Bft)
23.08.2013 01:25 10,2 C 89 % 1020,4 hPa 0,0 l/m 0,0 km/h (0 Bft) N-NO 22 8,5 C 9,8 C 0,0 km/h (0 Bft)
23.08.2013 01:30 10,2 C 89 % 1020,4 hPa 0,0 l/m 0,0 km/h (0 Bft) NO 45 8,5 C 9,8 C 0,0 km/h (0 Bft)
23.08.2013 01:35 10,3 C 89 % 1020,4 hPa 0,0 l/m 0,0 km/h (0 Bft) NO 45 8,6 C 9,9 C 0,0 km/h (0 Bft)
23.08.2013 01:40 10,0 C 89 % 1020,4 hPa 0,0 l/m 0,0 km/h (0 Bft) NO 45 8,3 C 9,8 C 0,0 km/h (0 Bft)
23.08.2013 01:45 10,0 C 89 % 1020,3 hPa 0,0 l/m 0,0 km/h (0 Bft) N-NO 22 8,3 C 9,7 C 0,0 km/h (0 Bft)
23.08.2013 01:50 9,9 C 89 % 1020,3 hPa 0,0 l/m 0,0 km/h (0 Bft) N 360 8,2 C 9,7 C 0,0 km/h (0 Bft)
23.08.2013 01:55 10,0 C 89 % 1020,3 hPa 0,0 l/m 0,0 km/h (0 Bft) NO 45 8,3 C 9,7 C 0,0 km/h (0 Bft)
23.08.2013 02:00 9,9 C 89 % 1020,3 hPa 0,0 l/m 0,0 km/h (0 Bft) NO 45 8,2 C 9,7 C 0,0 km/h (0 Bft)
23.08.2013 02:05 10,0 C 89 % 1020,1 hPa 0,0 l/m 0,0 km/h (0 Bft) N 360 8,3 C 9,6 C 0,0 km/h (0 Bft)
23.08.2013 02:10 9,8 C 89 % 1020,1 hPa 0,0 l/m 0,0 km/h (0 Bft) N 360 8,1 C 9,6 C 0,0 km/h (0 Bft)
23.08.2013 02:15 10,1 C 89 % 1020,1 hPa 0,0 l/m 0,0 km/h (0 Bft) N-NO 22 8,4 C 9,5 C 0,0 km/h (0 Bft)
23.08.2013 02:20 10,1 C 89 % 1020,1 hPa 0,0 l/m 0,0 km/h (0 Bft) N 360 8,4 C 9,7 C 0,0 km/h (0 Bft)
23.08.2013 02:25 9,9 C 90 % 1020,0 hPa 0,0 l/m 0,0 km/h (0 Bft) N 360 8,3 C 9,7 C 0,0 km/h (0 Bft)
23.08.2013 02:30 10,0 C 90 % 1020,0 hPa 0,0 l/m 0,0 km/h (0 Bft) N-NO 22 8,4 C 9,7 C 0,0 km/h (0 Bft)
23.08.2013 02:35 9,9 C 90 % 1020,0 hPa 0,0 l/m 0,0 km/h (0 Bft) N-NO 22 8,3 C 9,7 C 0,0 km/h (0 Bft)
23.08.2013 02:40 10,0 C 90 % 1020,0 hPa 0,0 l/m 0,0 km/h (0 Bft) NO 45 8,4 C 9,7 C 0,0 km/h (0 Bft)
23.08.2013 02:45 9,9 C 90 % 1019,8 hPa 0,0 l/m 0,0 km/h (0 Bft) NO 45 8,3 C 9,6 C 0,0 km/h (0 Bft)
23.08.2013 02:50 9,9 C 90 % 1019,8 hPa 0,0 l/m 0,0 km/h (0 Bft) N 360 8,3 C 9,6 C 0,0 km/h (0 Bft)
23.08.2013 02:55 9,8 C 90 % 1019,8 hPa 0,0 l/m 0,0 km/h (0 Bft) N 360 8,2 C 9,5 C 0,0 km/h (0 Bft)
23.08.2013 03:00 9,6 C 90 % 1019,8 hPa 0,0 l/m 0,0 km/h (0 Bft) N-NO 22 8,0 C 9,4 C 0,0 km/h (0 Bft)
23.08.2013 03:05 9,5 C 90 % 1019,9 hPa 0,0 l/m 0,0 km/h (0 Bft) N 360 7,9 C 9,4 C 0,0 km/h (0 Bft)
23.08.2013 03:10 9,5 C 90 % 1019,9 hPa 0,0 l/m 0,0 km/h (0 Bft) N 360 7,9 C 9,4 C 0,0 km/h (0 Bft)
23.08.2013 03:15 9,4 C 90 % 1019,9 hPa 0,0 l/m 0,0 km/h (0 Bft) N 360 7,8 C 9,2 C 0,0 km/h (0 Bft)
23.08.2013 03:20 9,6 C 90 % 1019,9 hPa 0,0 l/m 0,0 km/h (0 Bft) N 360 8,0 C 9,1 C 0,0 km/h (0 Bft)
23.08.2013 03:25 9,4 C 90 % 1019,9 hPa 0,0 l/m 0,0 km/h (0 Bft) N 360 7,8 C 9,2 C 0,0 km/h (0 Bft)
23.08.2013 03:30 9,3 C 90 % 1019,9 hPa 0,0 l/m 0,0 km/h (0 Bft) N 360 7,7 C 9,2 C 0,0 km/h (0 Bft)
23.08.2013 03:35 9,4 C 90 % 1019,9 hPa 0,0 l/m 0,0 km/h (0 Bft) NO 45 7,8 C 9,2 C 0,0 km/h (0 Bft)
23.08.2013 03:40 9,6 C 90 % 1019,9 hPa 0,0 l/m 0,0 km/h (0 Bft) NO 45 8,0 C 9,3 C 0,0 km/h (0 Bft)
23.08.2013 03:45 9,4 C 90 % 1019,8 hPa 0,0 l/m 0,0 km/h (0 Bft) NO 45 7,8 C 9,3 C 0,0 km/h (0 Bft)
23.08.2013 03:50 9,0 C 90 % 1019,8 hPa 0,0 l/m 0,0 km/h (0 Bft) NO 45 7,4 C 9,1 C 0,0 km/h (0 Bft)
23.08.2013 03:55 9,2 C 90 % 1019,8 hPa 0,0 l/m 0,0 km/h (0 Bft) NO 45 7,6 C 8,9 C 0,0 km/h (0 Bft)
23.08.2013 04:00 9,2 C 90 % 1019,8 hPa 0,0 l/m 0,0 km/h (0 Bft) NO 45 7,6 C 8,9 C 0,0 km/h (0 Bft)
23.08.2013 04:05 9,1 C 90 % 1019,7 hPa 0,0 l/m 0,0 km/h (0 Bft) NO 45 7,5 C 8,9 C 0,0 km/h (0 Bft)
23.08.2013 04:10 9,1 C 90 % 1019,7 hPa 0,0 l/m 0,0 km/h (0 Bft) NO 45 7,5 C 8,8 C 0,0 km/h (0 Bft)
23.08.2013 04:15 9,2 C 90 % 1019,7 hPa 0,0 l/m 0,0 km/h (0 Bft) NO 45 7,6 C 8,8 C 0,0 km/h (0 Bft)
23.08.2013 04:20 9,1 C 91 % 1019,7 hPa 0,0 l/m 0,0 km/h (0 Bft) N-NO 22 7,7 C 8,9 C 0,0 km/h (0 Bft)
23.08.2013 04:25 9,0 C 90 % 1019,8 hPa 0,0 l/m 0,0 km/h (0 Bft) N-NO 22 7,4 C 8,8 C 0,0 km/h (0 Bft)
23.08.2013 04:30 8,9 C 91 % 1019,8 hPa 0,0 l/m 0,0 km/h (0 Bft) O-NO 67 7,5 C 8,9 C 0,0 km/h (0 Bft)
23.08.2013 04:35 9,2 C 91 % 1019,8 hPa 0,0 l/m 0,0 km/h (0 Bft) O-NO 67 7,8 C 9,0 C 0,0 km/h (0 Bft)
23.08.2013 04:40 9,2 C 91 % 1019,8 hPa 0,0 l/m 0,0 km/h (0 Bft) NO 45 7,8 C 9,1 C 0,0 km/h (0 Bft)
23.08.2013 04:45 9,0 C 91 % 1019,6 hPa 0,0 l/m 0,0 km/h (0 Bft) N-NW 337 7,6 C 9,0 C 0,0 km/h (0 Bft)
23.08.2013 04:50 9,0 C 91 % 1019,6 hPa 0,0 l/m 0,0 km/h (0 Bft) N-NO 22 7,6 C 8,9 C 0,0 km/h (0 Bft)
23.08.2013 04:55 9,2 C 91 % 1019,6 hPa 0,0 l/m 0,0 km/h (0 Bft) NO 45 7,8 C 9,0 C 0,0 km/h (0 Bft)
23.08.2013 05:00 9,5 C 91 % 1019,6 hPa 0,0 l/m 0,0 km/h (0 Bft) NO 45 8,1 C 9,1 C 0,0 km/h (0 Bft)
23.08.2013 05:05 9,3 C 91 % 1019,6 hPa 0,0 l/m 0,0 km/h (0 Bft) NO 45 7,9 C 9,1 C 0,0 km/h (0 Bft)
23.08.2013 05:10 9,3 C 91 % 1019,6 hPa 0,0 l/m 0,0 km/h (0 Bft) NO 45 7,9 C 9,1 C 0,0 km/h (0 Bft)
23.08.2013 05:15 9,2 C 91 % 1019,6 hPa 0,0 l/m 0,0 km/h (0 Bft) N 360 7,8 C 9,1 C 0,0 km/h (0 Bft)
23.08.2013 05:20 8,9 C 91 % 1019,6 hPa 0,0 l/m 0,0 km/h (0 Bft) N 360 7,5 C 8,9 C 0,0 km/h (0 Bft)
23.08.2013 05:25 8,9 C 91 % 1019,5 hPa 0,0 l/m 0,0 km/h (0 Bft) N 360 7,5 C 8,7 C 0,0 km/h (0 Bft)
23.08.2013 05:30 8,9 C 91 % 1019,5 hPa 0,0 l/m 0,0 km/h (0 Bft) N-NO 22 7,5 C 8,6 C 0,0 km/h (0 Bft)
23.08.2013 05:35 8,9 C 91 % 1019,5 hPa 0,0 l/m 0,0 km/h (0 Bft) N-NW 337 7,5 C 8,7 C 0,0 km/h (0 Bft)
23.08.2013 05:40 8,9 C 91 % 1019,5 hPa 0,0 l/m 0,0 km/h (0 Bft) N-NO 22 7,5 C 8,7 C 0,0 km/h (0 Bft)
23.08.2013 05:45 8,9 C 91 % 1019,7 hPa 0,0 l/m 0,0 km/h (0 Bft) N-NW 337 7,5 C 8,8 C 0,0 km/h (0 Bft)
23.08.2013 05:50 8,9 C 91 % 1019,7 hPa 0,0 l/m 0,0 km/h (0 Bft) N-NO 22 7,5 C 8,8 C 0,0 km/h (0 Bft)
23.08.2013 05:55 9,1 C 91 % 1019,7 hPa 0,0 l/m 0,0 km/h (0 Bft) N-NO 22 7,7 C 8,8 C 0,0 km/h (0 Bft)
23.08.2013 06:00 9,1 C 91 % 1019,7 hPa 0,0 l/m 0,0 km/h (0 Bft) N-NO 22 7,7 C 8,8 C 0,0 km/h (0 Bft)
23.08.2013 06:05 9,0 C 91 % 1019,6 hPa 0,0 l/m 0,0 km/h (0 Bft) N-NO 22 7,6 C 8,8 C 0,0 km/h (0 Bft)
23.08.2013 06:10 9,0 C 91 % 1019,6 hPa 0,0 l/m 0,0 km/h (0 Bft) N 360 7,6 C 8,8 C 0,0 km/h (0 Bft)
23.08.2013 06:15 8,9 C 92 % 1019,6 hPa 0,0 l/m 0,0 km/h (0 Bft) N 360 7,7 C 8,8 C 0,0 km/h (0 Bft)
23.08.2013 06:20 8,9 C 92 % 1019,6 hPa 0,0 l/m 0,0 km/h (0 Bft) N 360 7,7 C 8,7 C 0,0 km/h (0 Bft)
23.08.2013 06:25 8,7 C 92 % 1019,4 hPa 0,0 l/m 0,0 km/h (0 Bft) N 360 7,5 C 8,7 C 0,0 km/h (0 Bft)
23.08.2013 06:30 8,9 C 92 % 1019,4 hPa 0,0 l/m 0,0 km/h (0 Bft) N 360 7,7 C 8,7 C 0,0 km/h (0 Bft)
23.08.2013 06:35 8,9 C 92 % 1019,4 hPa 0,0 l/m 0,0 km/h (0 Bft) N 360 7,7 C 8,7 C 0,0 km/h (0 Bft)
23.08.2013 06:40 8,8 C 92 % 1019,4 hPa 0,0 l/m 0,0 km/h (0 Bft) N 360 7,6 C 8,7 C 0,0 km/h (0 Bft)
23.08.2013 06:45 9,0 C 92 % 1019,4 hPa 0,0 l/m 0,0 km/h (0 Bft) N 360 7,8 C 8,8 C 0,0 km/h (0 Bft)
23.08.2013 06:50 9,2 C 92 % 1019,4 hPa 0,0 l/m 0,0 km/h (0 Bft) N 360 8,0 C 8,8 C 0,0 km/h (0 Bft)
23.08.2013 06:55 9,3 C 92 % 1019,4 hPa 0,0 l/m 0,0 km/h (0 Bft) N-NW 337 8,1 C 9,1 C 0,0 km/h (0 Bft)
23.08.2013 07:00 9,4 C 92 % 1019,4 hPa 0,0 l/m 0,0 km/h (0 Bft) N-NO 22 8,2 C 9,2 C 0,0 km/h (0 Bft)
23.08.2013 07:05 9,6 C 92 % 1019,4 hPa 0,0 l/m 0,0 km/h (0 Bft) N-NO 22 8,4 C 9,4 C 0,0 km/h (0 Bft)
23.08.2013 07:10 9,8 C 92 % 1019,4 hPa 0,0 l/m 0,0 km/h (0 Bft) N 360 8,6 C 9,6 C 0,0 km/h (0 Bft)
23.08.2013 07:15 9,9 C 92 % 1019,4 hPa 0,0 l/m 0,0 km/h (0 Bft) N 360 8,7 C 9,8 C 0,0 km/h (0 Bft)
23.08.2013 07:20 10,2 C 92 % 1019,4 hPa 0,0 l/m 0,0 km/h (0 Bft) N-NW 337 9,0 C 10,1 C 0,0 km/h (0 Bft)
23.08.2013 07:25 10,3 C 92 % 1019,6 hPa 0,0 l/m 0,0 km/h (0 Bft) N-NW 337 9,1 C 10,4 C 0,0 km/h (0 Bft)
23.08.2013 07:30 10,7 C 92 % 1019,6 hPa 0,0 l/m 0,0 km/h (0 Bft) N-NW 337 9,5 C 10,7 C 0,0 km/h (0 Bft)
23.08.2013 07:35 11,0 C 92 % 1019,6 hPa 0,0 l/m 0,0 km/h (0 Bft) N-NW 337 9,8 C 11,0 C 0,0 km/h (0 Bft)
23.08.2013 07:40 11,2 C 92 % 1019,6 hPa 0,0 l/m 0,0 km/h (0 Bft) N-NW 337 9,9 C 11,5 C 0,0 km/h (0 Bft)
23.08.2013 07:45 11,4 C 92 % 1019,8 hPa 0,0 l/m 0,0 km/h (0 Bft) N-NW 337 10,1 C 11,9 C 0,0 km/h (0 Bft)
23.08.2013 07:50 11,5 C 92 % 1019,8 hPa 0,0 l/m 0,0 km/h (0 Bft) N-NW 337 10,2 C 12,0 C 0,0 km/h (0 Bft)
23.08.2013 07:55 11,8 C 92 % 1019,8 hPa 0,0 l/m 0,0 km/h (0 Bft) N-NW 337 10,5 C 12,2 C 0,0 km/h (0 Bft)
23.08.2013 08:00 12,6 C 92 % 1019,8 hPa 0,0 l/m 0,0 km/h (0 Bft) W-SW 247 11,3 C 12,5 C 0,0 km/h (0 Bft)
23.08.2013 08:05 12,5 C 91 % 1019,4 hPa 0,0 l/m 0,0 km/h (0 Bft) N 360 11,1 C 12,9 C 0,0 km/h (0 Bft)
23.08.2013 08:10 12,4 C 91 % 1019,4 hPa 0,0 l/m 0,0 km/h (0 Bft) N 360 11,0 C 13,1 C 0,0 km/h (0 Bft)
23.08.2013 08:15 12,5 C 91 % 1019,4 hPa 0,0 l/m 0,0 km/h (0 Bft) N 360 11,1 C 13,3 C 0,0 km/h (0 Bft)
23.08.2013 08:20 12,7 C 91 % 1019,4 hPa 0,0 l/m 0,0 km/h (0 Bft) N 360 11,3 C 13,4 C 0,0 km/h (0 Bft)
23.08.2013 08:25 12,9 C 91 % 1019,8 hPa 0,0 l/m 0,0 km/h (0 Bft) N 360 11,5 C 13,6 C 0,0 km/h (0 Bft)
23.08.2013 08:30 13,2 C 90 % 1019,8 hPa 0,0 l/m 0,0 km/h (0 Bft) N 360 11,6 C 13,8 C 0,0 km/h (0 Bft)
23.08.2013 08:35 13,3 C 90 % 1019,8 hPa 0,0 l/m 0,0 km/h (0 Bft) NW 315 11,7 C 14,1 C 0,0 km/h (0 Bft)
23.08.2013 08:40 14,2 C 90 % 1019,8 hPa 0,0 l/m 0,0 km/h (0 Bft) S 180 12,6 C 14,5 C 0,0 km/h (0 Bft)
23.08.2013 08:45 15,5 C 89 % 1019,8 hPa 0,0 l/m 0,0 km/h (0 Bft) W-SW 247 13,7 C 15,0 C 0,0 km/h (0 Bft)
23.08.2013 08:50 18,0 C 83 % 1019,8 hPa 0,0 l/m 0,0 km/h (0 Bft) NO 45 15,1 C 16,7 C 0,0 km/h (0 Bft)
23.08.2013 08:55 17,4 C 79 % 1019,8 hPa 0,0 l/m 0,0 km/h (0 Bft) W-SW 247 13,7 C 18,4 C 0,0 km/h (0 Bft)
23.08.2013 09:00 18,5 C 80 % 1019,8 hPa 0,0 l/m 0,0 km/h (0 Bft) W-NW 292 15,0 C 19,2 C 0,0 km/h (0 Bft)
23.08.2013 09:05 18,0 C 76 % 1019,8 hPa 0,0 l/m 0,0 km/h (0 Bft) W-NW 292 13,7 C 19,4 C 0,0 km/h (0 Bft)
23.08.2013 09:10 17,5 C 77 % 1019,8 hPa 0,0 l/m 0,0 km/h (0 Bft) W 270 13,4 C 19,2 C 0,0 km/h (0 Bft)
23.08.2013 09:15 18,1 C 77 % 1019,8 hPa 0,0 l/m 0,0 km/h (0 Bft) W-SW 247 14,0 C 19,2 C 0,0 km/h (0 Bft)
23.08.2013 09:20 19,4 C 75 % 1019,8 hPa 0,0 l/m 0,0 km/h (0 Bft) W-NW 292 14,8 C 19,8 C 0,0 km/h (0 Bft)
23.08.2013 09:25 18,6 C 74 % 1019,9 hPa 0,0 l/m 0,0 km/h (0 Bft) W 270 13,9 C 20,0 C 0,0 km/h (0 Bft)
23.08.2013 09:30 17,6 C 75 % 1019,9 hPa 0,0 l/m 0,3 km/h (0 Bft) N-NW 337 13,1 C 19,2 C 3,2 km/h (1 Bft)
23.08.2013 09:35 17,5 C 75 % 1019,9 hPa 0,0 l/m 0,5 km/h (0 Bft) W-SW 247 13,0 C 19,0 C 0,0 km/h (0 Bft)
23.08.2013 09:40 17,3 C 75 % 1019,9 hPa 0,0 l/m 0,2 km/h (0 Bft) W-SW 247 12,8 C 18,6 C 0,0 km/h (0 Bft)
23.08.2013 09:45 17,8 C 75 % 1019,8 hPa 0,0 l/m 0,0 km/h (0 Bft) S 180 13,3 C 18,6 C 0,0 km/h (0 Bft)
23.08.2013 09:50 17,8 C 74 % 1019,8 hPa 0,0 l/m 0,5 km/h (0 Bft) N-NO 22 13,1 C 18,9 C 2,6 km/h (1 Bft)
23.08.2013 09:55 18,1 C 73 % 1019,8 hPa 0,0 l/m 0,8 km/h (0 Bft) N-NW 337 13,2 C 19,2 C 0,0 km/h (0 Bft)
23.08.2013 10:00 19,7 C 72 % 1019,8 hPa 0,0 l/m 0,5 km/h (0 Bft) N 360 14,5 C 20,5 C 0,0 km/h (0 Bft)
23.08.2013 10:05 19,3 C 69 % 1020,2 hPa 0,0 l/m 0,6 km/h (0 Bft) W-NW 292 13,5 C 20,8 C 1,8 km/h (1 Bft)
23.08.2013 10:10 19,3 C 68 % 1020,2 hPa 0,0 l/m 1,4 km/h (1 Bft) W-NW 292 13,2 C 20,8 C 4,0 km/h (1 Bft)
23.08.2013 10:15 18,9 C 69 % 1020,2 hPa 0,0 l/m 1,3 km/h (1 Bft) O-SO 112 13,1 C 21,0 C 0,0 km/h (0 Bft)
23.08.2013 10:20 20,2 C 67 % 1020,2 hPa 0,0 l/m 0,6 km/h (0 Bft) S-SW 202 13,9 C 21,6 C 2,6 km/h (1 Bft)
23.08.2013 10:25 19,9 C 66 % 1020,5 hPa 0,0 l/m 0,5 km/h (0 Bft) W 270 13,4 C 22,0 C 1,8 km/h (1 Bft)
23.08.2013 10:30 19,5 C 66 % 1020,5 hPa 0,0 l/m 1,1 km/h (1 Bft) W-NW 292 13,0 C 21,7 C 2,4 km/h (1 Bft)
23.08.2013 10:35 19,5 C 65 % 1020,5 hPa 0,0 l/m 0,8 km/h (0 Bft) N 360 12,7 C 21,7 C 0,0 km/h (0 Bft)
23.08.2013 10:40 20,0 C 64 % 1020,5 hPa 0,0 l/m 0,5 km/h (0 Bft) N-NW 337 13,0 C 22,1 C 3,1 km/h (1 Bft)
23.08.2013 10:45 20,6 C 65 % 1020,6 hPa 0,0 l/m 0,5 km/h (0 Bft) NO 45 13,8 C 22,3 C 0,0 km/h (0 Bft)
23.08.2013 10:50 20,5 C 63 % 1020,6 hPa 0,0 l/m 0,8 km/h (0 Bft) N-NO 22 13,2 C 23,0 C 0,0 km/h (0 Bft)
23.08.2013 10:55 20,5 C 62 % 1020,6 hPa 0,0 l/m 1,3 km/h (1 Bft) W-NW 292 13,0 C 23,0 C 0,0 km/h (0 Bft)
23.08.2013 11:00 21,6 C 61 % 1020,6 hPa 0,0 l/m 1,1 km/h (1 Bft) NW 315 13,7 C 23,5 C 4,7 km/h (1 Bft)
23.08.2013 11:05 21,3 C 58 % 1020,8 hPa 0,0 l/m 0,8 km/h (0 Bft) NO 45 12,7 C 23,8 C 0,0 km/h (0 Bft)
23.08.2013 11:10 21,9 C 55 % 1020,8 hPa 0,0 l/m 1,3 km/h (1 Bft) N 360 12,4 C 24,6 C 4,8 km/h (1 Bft)
23.08.2013 11:15 21,9 C 58 % 1020,8 hPa 0,0 l/m 1,3 km/h (1 Bft) O 90 13,3 C 24,8 C 3,4 km/h (1 Bft)
23.08.2013 11:20 22,3 C 58 % 1020,8 hPa 0,0 l/m 1,9 km/h (1 Bft) W-NW 292 13,6 C 24,7 C 5,3 km/h (1 Bft)
23.08.2013 11:25 21,4 C 57 % 1020,7 hPa 0,0 l/m 2,3 km/h (1 Bft) N 360 12,5 C 24,3 C 3,9 km/h (1 Bft)
23.08.2013 11:30 21,2 C 57 % 1020,7 hPa 0,0 l/m 2,6 km/h (1 Bft) N-NO 22 12,3 C 23,5 C 2,9 km/h (1 Bft)
23.08.2013 11:35 22,1 C 58 % 1020,7 hPa 0,0 l/m 2,3 km/h (1 Bft) SW 225 13,4 C 23,3 C 0,0 km/h (0 Bft)
23.08.2013 11:40 21,8 C 57 % 1020,7 hPa 0,0 l/m 1,4 km/h (1 Bft) W-NW 292 12,9 C 23,8 C 6,3 km/h (2 Bft)
23.08.2013 11:45 22,1 C 56 % 1020,8 hPa 0,0 l/m 1,8 km/h (1 Bft) NO 45 12,9 C 23,8 C 0,0 km/h (0 Bft)
23.08.2013 11:50 23,9 C 53 % 1020,8 hPa 0,0 l/m 2,7 km/h (1 Bft) W 270 13,7 C 24,8 C 4,3 km/h (1 Bft)
23.08.2013 11:55 23,9 C 52 % 1020,8 hPa 0,0 l/m 2,1 km/h (1 Bft) O-NO 67 13,4 C 25,3 C 2,1 km/h (1 Bft)
23.08.2013 12:00 24,9 C 50 % 1020,8 hPa 0,0 l/m 2,6 km/h (1 Bft) W 270 13,7 C 26,4 C 8,0 km/h (2 Bft)
23.08.2013 12:05 24,6 C 50 % 1020,8 hPa 0,0 l/m 2,6 km/h (1 Bft) N-NW 337 13,5 C 26,3 C 1,9 km/h (1 Bft)
23.08.2013 12:10 24,9 C 50 % 1020,8 hPa 0,0 l/m 1,4 km/h (1 Bft) NW 315 13,7 C 26,9 C 2,1 km/h (1 Bft)
23.08.2013 12:15 24,4 C 51 % 1020,8 hPa 0,0 l/m 0,6 km/h (0 Bft) NW 315 13,6 C 27,8 C 1,6 km/h (1 Bft)
23.08.2013 12:20 24,1 C 52 % 1020,8 hPa 0,0 l/m 1,6 km/h (1 Bft) S-SW 202 13,6 C 27,9 C 3,7 km/h (1 Bft)
23.08.2013 12:25 23,9 C 50 % 1020,9 hPa 0,0 l/m 2,9 km/h (1 Bft) NO 45 12,8 C 27,3 C 0,0 km/h (0 Bft)
23.08.2013 12:30 23,7 C 55 % 1020,9 hPa 0,0 l/m 2,6 km/h (1 Bft) S-SW 202 14,1 C 26,8 C 5,1 km/h (1 Bft)
23.08.2013 12:35 23,9 C 53 % 1020,9 hPa 0,0 l/m 2,1 km/h (1 Bft) W 270 13,7 C 26,3 C 3,2 km/h (1 Bft)
23.08.2013 12:40 23,2 C 55 % 1020,9 hPa 0,0 l/m 3,4 km/h (1 Bft) SO 135 13,6 C 25,5 C 3,7 km/h (1 Bft)
23.08.2013 12:45 23,5 C 55 % 1020,9 hPa 0,0 l/m 3,4 km/h (1 Bft) S 180 13,9 C 25,2 C 3,7 km/h (1 Bft)
23.08.2013 12:50 22,6 C 59 % 1020,9 hPa 0,0 l/m 2,6 km/h (1 Bft) N-NW 337 14,2 C 25,2 C 5,0 km/h (1 Bft)
23.08.2013 12:55 22,5 C 58 % 1020,9 hPa 0,0 l/m 3,2 km/h (1 Bft) N-NW 337 13,8 C 25,0 C 5,6 km/h (1 Bft)
23.08.2013 13:00 22,7 C 58 % 1020,9 hPa 0,0 l/m 2,9 km/h (1 Bft) W-NW 292 14,0 C 25,0 C 4,7 km/h (1 Bft)
23.08.2013 13:05 23,7 C 56 % 1021,1 hPa 0,0 l/m 2,7 km/h (1 Bft) W-SW 247 14,4 C 25,7 C 3,7 km/h (1 Bft)
23.08.2013 13:10 23,6 C 55 % 1021,1 hPa 0,0 l/m 2,9 km/h (1 Bft) N-NO 22 14,0 C 26,1 C 8,9 km/h (2 Bft)
23.08.2013 13:15 22,3 C 57 % 1021,1 hPa 0,0 l/m 4,2 km/h (1 Bft) N-NO 22 13,4 C 25,7 C 7,4 km/h (2 Bft)
23.08.2013 13:20 22,6 C 58 % 1021,1 hPa 0,0 l/m 4,5 km/h (1 Bft) W-SW 247 13,9 C 24,7 C 9,8 km/h (2 Bft)
23.08.2013 13:25 23,1 C 56 % 1021,0 hPa 0,0 l/m 3,5 km/h (1 Bft) N 360 13,8 C 24,7 C 3,4 km/h (1 Bft)
23.08.2013 13:30 22,5 C 58 % 1021,0 hPa 0,0 l/m 2,3 km/h (1 Bft) W 270 13,8 C 24,9 C 0,0 km/h (0 Bft)
23.08.2013 13:35 23,0 C 57 % 1021,0 hPa 0,0 l/m 2,3 km/h (1 Bft) N-NW 337 14,0 C 24,9 C 0,0 km/h (0 Bft)
23.08.2013 13:40 22,4 C 58 % 1021,0 hPa 0,0 l/m 2,6 km/h (1 Bft) NW 315 13,7 C 24,9 C 5,0 km/h (1 Bft)
23.08.2013 13:45 22,1 C 58 % 1021,0 hPa 0,0 l/m 2,6 km/h (1 Bft) N-NW 337 13,4 C 24,5 C 5,8 km/h (2 Bft)
23.08.2013 13:50 21,7 C 59 % 1021,0 hPa 0,0 l/m 2,9 km/h (1 Bft) N-NW 337 13,3 C 24,2 C 2,1 km/h (1 Bft)
23.08.2013 13:55 22,1 C 61 % 1021,0 hPa 0,0 l/m 2,3 km/h (1 Bft) NW 315 14,2 C 23,9 C 3,5 km/h (1 Bft)
23.08.2013 14:00 21,8 C 59 % 1021,0 hPa 0,0 l/m 2,4 km/h (1 Bft) N-NW 337 13,4 C 23,7 C 2,1 km/h (1 Bft)
23.08.2013 14:05 21,6 C 61 % 1020,8 hPa 0,0 l/m 3,1 km/h (1 Bft) W 270 13,7 C 23,5 C 3,5 km/h (1 Bft)
23.08.2013 14:10 21,3 C 61 % 1020,8 hPa 0,0 l/m 3,2 km/h (1 Bft) NW 315 13,5 C 23,2 C 3,9 km/h (1 Bft)
23.08.2013 14:13 22,2 C 61 % 1020,8 hPa 0,0 l/m 2,6 km/h (1 Bft) NW 315 14,3 C 23,3 C 4,5 km/h (1 Bft)
23.08.2013 14:15 22,5 C 59 % 1020,8 hPa 0,0 l/m 3,4 km/h (1 Bft) W-NW 292 14,1 C 23,7 C 6,4 km/h (2 Bft)
23.08.2013 14:20 22,7 C 61 % 1020,8 hPa 0,0 l/m 4,3 km/h (1 Bft) W-SW 247 14,8 C 23,9 C 5,0 km/h (1 Bft)
23.08.2013 14:25 22,0 C 59 % 1020,8 hPa 0,0 l/m 3,9 km/h (1 Bft) W-NW 292 13,6 C 23,9 C 7,2 km/h (2 Bft)
23.08.2013 14:30 21,9 C 61 % 1020,8 hPa 0,0 l/m 3,7 km/h (1 Bft) W 270 14,0 C 23,7 C 4,2 km/h (1 Bft)
23.08.2013 14:35 21,4 C 64 % 1020,8 hPa 0,0 l/m 4,3 km/h (1 Bft) NW 315 14,3 C 23,2 C 2,9 km/h (1 Bft)
23.08.2013 14:40 21,6 C 63 % 1020,8 hPa 0,0 l/m 4,0 km/h (1 Bft) W-NW 292 14,2 C 23,1 C 2,7 km/h (1 Bft)
23.08.2013 14:45 21,8 C 63 % 1020,8 hPa 0,0 l/m 3,2 km/h (1 Bft) W-NW 292 14,4 C 23,5 C 6,1 km/h (2 Bft)
23.08.2013 14:50 22,3 C 61 % 1020,8 hPa 0,0 l/m 3,1 km/h (1 Bft) W-SW 247 14,4 C 23,7 C 1,8 km/h (1 Bft)
23.08.2013 14:55 21,9 C 60 % 1020,8 hPa 0,0 l/m 2,4 km/h (1 Bft) W-NW 292 13,8 C 24,1 C 1,9 km/h (1 Bft)
23.08.2013 15:00 21,7 C 61 % 1020,7 hPa 0,0 l/m 1,3 km/h (1 Bft) N-NO 22 13,8 C 24,3 C 0,0 km/h (0 Bft)
23.08.2013 15:05 21,9 C 59 % 1020,7 hPa 0,0 l/m 2,3 km/h (1 Bft) N 360 13,5 C 24,5 C 3,7 km/h (1 Bft)
23.08.2013 15:10 21,9 C 60 % 1020,7 hPa 0,0 l/m 3,4 km/h (1 Bft) N-NW 337 13,8 C 24,5 C 6,4 km/h (2 Bft)
23.08.2013 15:15 21,1 C 62 % 1020,7 hPa 0,0 l/m 3,2 km/h (1 Bft) NW 315 13,5 C 23,9 C 3,5 km/h (1 Bft)
23.08.2013 15:20 21,1 C 62 % 1020,4 hPa 0,0 l/m 3,1 km/h (1 Bft) N-NW 337 13,5 C 23,3 C 3,9 km/h (1 Bft)
23.08.2013 15:25 21,2 C 62 % 1020,4 hPa 0,0 l/m 2,4 km/h (1 Bft) S 180 13,6 C 23,0 C 0,0 km/h (0 Bft)
23.08.2013 15:30 22,2 C 62 % 1020,4 hPa 0,0 l/m 1,0 km/h (0 Bft) W-NW 292 14,6 C 23,5 C 0,0 km/h (0 Bft)
23.08.2013 15:35 22,2 C 59 % 1020,4 hPa 0,0 l/m 1,1 km/h (1 Bft) W 270 13,8 C 24,9 C 7,9 km/h (2 Bft)
23.08.2013 15:40 22,4 C 59 % 1020,4 hPa 0,0 l/m 2,7 km/h (1 Bft) W 270 14,0 C 24,7 C 5,1 km/h (1 Bft)
23.08.2013 15:45 21,4 C 62 % 1020,4 hPa 0,0 l/m 4,2 km/h (1 Bft) N-NW 337 13,8 C 24,2 C 2,9 km/h (1 Bft)
23.08.2013 15:50 21,7 C 61 % 1020,4 hPa 0,0 l/m 4,2 km/h (1 Bft) W-NW 292 13,8 C 23,8 C 7,2 km/h (2 Bft)
23.08.2013 15:55 22,3 C 58 % 1020,4 hPa 0,0 l/m 3,5 km/h (1 Bft) SO 135 13,6 C 24,1 C 1,9 km/h (1 Bft)
23.08.2013 16:00 22,3 C 59 % 1020,5 hPa 0,0 l/m 2,7 km/h (1 Bft) N 360 13,9 C 24,8 C 4,5 km/h (1 Bft)
23.08.2013 16:05 22,8 C 58 % 1020,5 hPa 0,0 l/m 2,7 km/h (1 Bft) W 270 14,1 C 24,9 C 3,7 km/h (1 Bft)
23.08.2013 16:10 22,1 C 58 % 1020,5 hPa 0,0 l/m 3,1 km/h (1 Bft) O 90 13,4 C 25,7 C 3,1 km/h (1 Bft)
23.08.2013 16:15 21,8 C 60 % 1020,5 hPa 0,0 l/m 3,4 km/h (1 Bft) N-NO 22 13,7 C 24,5 C 4,7 km/h (1 Bft)
23.08.2013 16:20 21,4 C 61 % 1020,3 hPa 0,0 l/m 2,7 km/h (1 Bft) O-NO 67 13,6 C 24,4 C 0,0 km/h (0 Bft)
23.08.2013 16:25 21,6 C 60 % 1020,3 hPa 0,0 l/m 2,6 km/h (1 Bft) N-NW 337 13,5 C 24,8 C 5,6 km/h (1 Bft)
23.08.2013 16:30 21,9 C 59 % 1020,3 hPa 0,0 l/m 2,9 km/h (1 Bft) N-NW 337 13,5 C 25,0 C 5,1 km/h (1 Bft)
23.08.2013 16:35 22,4 C 58 % 1020,3 hPa 0,0 l/m 3,9 km/h (1 Bft) N-NO 22 13,7 C 25,9 C 4,8 km/h (1 Bft)
23.08.2013 16:40 22,3 C 59 % 1020,6 hPa 0,0 l/m 4,5 km/h (1 Bft) S-SO 157 13,9 C 26,5 C 6,8 km/h (2 Bft)
23.08.2013 16:45 21,6 C 59 % 1020,6 hPa 0,0 l/m 4,2 km/h (1 Bft) N-NW 337 13,2 C 25,1 C 4,7 km/h (1 Bft)
23.08.2013 16:50 21,7 C 59 % 1020,6 hPa 0,0 l/m 3,5 km/h (1 Bft) W-SW 247 13,3 C 24,8 C 3,2 km/h (1 Bft)
23.08.2013 16:55 21,3 C 61 % 1020,6 hPa 0,0 l/m 2,9 km/h (1 Bft) W 270 13,5 C 25,1 C 2,6 km/h (1 Bft)
23.08.2013 17:00 20,8 C 62 % 1020,2 hPa 0,0 l/m 2,4 km/h (1 Bft) N-NW 337 13,2 C 24,8 C 1,6 km/h (1 Bft)
23.08.2013 17:05 20,6 C 64 % 1020,2 hPa 0,0 l/m 1,6 km/h (1 Bft) S-SW 202 13,5 C 24,0 C 0,0 km/h (0 Bft)
23.08.2013 17:10 20,7 C 64 % 1020,2 hPa 0,0 l/m 1,8 km/h (1 Bft) NO 45 13,6 C 23,8 C 2,3 km/h (1 Bft)
23.08.2013 17:15 20,6 C 64 % 1020,2 hPa 0,0 l/m 2,6 km/h (1 Bft) W 270 13,5 C 23,7 C 1,9 km/h (1 Bft)
23.08.2013 17:20 20,5 C 64 % 1020,2 hPa 0,0 l/m 2,1 km/h (1 Bft) N 360 13,5 C 23,6 C 2,6 km/h (1 Bft)
23.08.2013 17:25 20,3 C 64 % 1020,2 hPa 0,0 l/m 1,8 km/h (1 Bft) N-NW 337 13,3 C 22,8 C 2,7 km/h (1 Bft)
23.08.2013 17:30 20,2 C 65 % 1020,2 hPa 0,0 l/m 1,9 km/h (1 Bft) N 360 13,4 C 22,4 C 2,1 km/h (1 Bft)
23.08.2013 17:35 20,2 C 66 % 1020,2 hPa 0,0 l/m 1,9 km/h (1 Bft) N 360 13,6 C 21,9 C 3,5 km/h (1 Bft)
23.08.2013 17:40 20,3 C 66 % 1019,6 hPa 0,0 l/m 2,1 km/h (1 Bft) N-NO 22 13,7 C 21,7 C 3,2 km/h (1 Bft)
23.08.2013 17:45 20,3 C 66 % 1019,6 hPa 0,0 l/m 1,4 km/h (1 Bft) N-NO 22 13,7 C 21,8 C 2,9 km/h (1 Bft)
23.08.2013 17:50 20,3 C 65 % 1019,6 hPa 0,0 l/m 1,6 km/h (1 Bft) N-NO 22 13,5 C 21,9 C 3,2 km/h (1 Bft)
23.08.2013 17:55 20,5 C 65 % 1019,6 hPa 0,0 l/m 2,3 km/h (1 Bft) O 90 13,7 C 22,1 C 1,8 km/h (1 Bft)
23.08.2013 18:00 20,8 C 64 % 1019,6 hPa 0,0 l/m 2,4 km/h (1 Bft) N-NO 22 13,7 C 22,8 C 3,4 km/h (1 Bft)
23.08.2013 18:05 20,9 C 62 % 1019,6 hPa 0,0 l/m 2,6 km/h (1 Bft) W-NW 292 13,3 C 23,9 C 0,0 km/h (0 Bft)
23.08.2013 18:10 20,9 C 61 % 1019,6 hPa 0,0 l/m 3,5 km/h (1 Bft) W-SW 247 13,1 C 24,6 C 3,4 km/h (1 Bft)
23.08.2013 18:15 21,0 C 59 % 1019,6 hPa 0,0 l/m 3,7 km/h (1 Bft) W-SW 247 12,7 C 25,4 C 4,2 km/h (1 Bft)
23.08.2013 18:20 21,1 C 58 % 1020,1 hPa 0,0 l/m 4,0 km/h (1 Bft) N-NW 337 12,5 C 25,7 C 5,0 km/h (1 Bft)
23.08.2013 18:25 20,5 C 59 % 1020,1 hPa 0,0 l/m 3,4 km/h (1 Bft) N 360 12,2 C 24,8 C 8,9 km/h (2 Bft)
23.08.2013 18:30 20,5 C 59 % 1020,1 hPa 0,0 l/m 3,2 km/h (1 Bft) W-SW 247 12,2 C 24,5 C 2,9 km/h (1 Bft)
23.08.2013 18:35 20,7 C 59 % 1020,1 hPa 0,0 l/m 3,7 km/h (1 Bft) W-NW 292 12,4 C 24,9 C 3,9 km/h (1 Bft)
23.08.2013 18:40 20,7 C 59 % 1019,5 hPa 0,0 l/m 3,4 km/h (1 Bft) W 270 12,4 C 25,1 C 2,9 km/h (1 Bft)
23.08.2013 18:45 20,5 C 59 % 1019,5 hPa 0,0 l/m 2,7 km/h (1 Bft) W-NW 292 12,2 C 25,4 C 5,8 km/h (2 Bft)
23.08.2013 18:50 20,3 C 59 % 1019,5 hPa 0,0 l/m 2,9 km/h (1 Bft) N 360 12,0 C 25,1 C 3,7 km/h (1 Bft)
23.08.2013 18:55 20,1 C 60 % 1019,5 hPa 0,0 l/m 2,7 km/h (1 Bft) NO 45 12,1 C 24,3 C 3,5 km/h (1 Bft)
23.08.2013 19:00 20,0 C 61 % 1019,6 hPa 0,0 l/m 2,1 km/h (1 Bft) N-NW 337 12,2 C 23,7 C 3,1 km/h (1 Bft)
23.08.2013 19:05 19,7 C 60 % 1019,6 hPa 0,0 l/m 1,8 km/h (1 Bft) S-SW 202 11,7 C 23,3 C 0,0 km/h (0 Bft)
23.08.2013 19:10 19,7 C 61 % 1019,6 hPa 0,0 l/m 1,8 km/h (1 Bft) W-NW 292 12,0 C 23,4 C 2,6 km/h (1 Bft)
23.08.2013 19:15 19,6 C 62 % 1019,6 hPa 0,0 l/m 1,1 km/h (1 Bft) N-NW 337 12,1 C 23,3 C 2,6 km/h (1 Bft)
23.08.2013 19:20 19,4 C 63 % 1019,3 hPa 0,0 l/m 1,4 km/h (1 Bft) W-NW 292 12,2 C 23,2 C 2,7 km/h (1 Bft)
23.08.2013 19:25 19,0 C 61 % 1019,3 hPa 0,0 l/m 2,4 km/h (1 Bft) O 90 11,3 C 22,0 C 2,6 km/h (1 Bft)
23.08.2013 19:30 18,8 C 62 % 1019,3 hPa 0,0 l/m 2,4 km/h (1 Bft) O 90 11,4 C 21,2 C 0,0 km/h (0 Bft)
23.08.2013 19:35 18,4 C 63 % 1019,3 hPa 0,0 l/m 1,9 km/h (1 Bft) O 90 11,2 C 20,2 C 2,9 km/h (1 Bft)
23.08.2013 19:40 18,3 C 64 % 1019,0 hPa 0,0 l/m 2,3 km/h (1 Bft) W 270 11,4 C 19,7 C 3,1 km/h (1 Bft)
23.08.2013 19:45 18,2 C 65 % 1019,0 hPa 0,0 l/m 2,6 km/h (1 Bft) NO 45 11,5 C 19,7 C 2,4 km/h (1 Bft)
23.08.2013 19:50 18,0 C 66 % 1019,0 hPa 0,0 l/m 1,9 km/h (1 Bft) O-NO 67 11,6 C 19,5 C 1,8 km/h (1 Bft)
23.08.2013 19:55 17,7 C 67 % 1019,0 hPa 0,0 l/m 1,6 km/h (1 Bft) N-NO 22 11,5 C 18,9 C 1,8 km/h (1 Bft)
23.08.2013 20:00 17,5 C 67 % 1019,0 hPa 0,0 l/m 1,6 km/h (1 Bft) NO 45 11,3 C 18,5 C 3,1 km/h (1 Bft)
23.08.2013 20:05 17,3 C 68 % 1019,0 hPa 0,0 l/m 0,8 km/h (0 Bft) O 90 11,3 C 18,0 C 0,0 km/h (0 Bft)
23.08.2013 20:10 17,2 C 69 % 1019,0 hPa 0,0 l/m 0,5 km/h (0 Bft) O 90 11,5 C 17,8 C 0,0 km/h (0 Bft)
23.08.2013 20:15 17,0 C 69 % 1019,0 hPa 0,0 l/m 0,2 km/h (0 Bft) O 90 11,3 C 17,4 C 0,0 km/h (0 Bft)
23.08.2013 20:20 16,8 C 70 % 1019,2 hPa 0,0 l/m 1,0 km/h (0 Bft) O 90 11,3 C 17,0 C 2,7 km/h (1 Bft)
23.08.2013 20:25 16,5 C 71 % 1019,2 hPa 0,0 l/m 2,7 km/h (1 Bft) O-NO 67 11,2 C 16,6 C 4,3 km/h (1 Bft)
23.08.2013 20:30 16,3 C 73 % 1019,2 hPa 0,0 l/m 3,4 km/h (1 Bft) O 90 11,4 C 16,4 C 3,1 km/h (1 Bft)
23.08.2013 20:35 15,9 C 75 % 1019,2 hPa 0,0 l/m 2,9 km/h (1 Bft) O-NO 67 11,5 C 16,0 C 1,8 km/h (1 Bft)
23.08.2013 20:40 15,7 C 75 % 1019,5 hPa 0,0 l/m 1,6 km/h (1 Bft) O-NO 67 11,3 C 15,6 C 0,0 km/h (0 Bft)
23.08.2013 20:45 15,6 C 76 % 1019,5 hPa 0,0 l/m 1,6 km/h (1 Bft) O 90 11,4 C 15,3 C 1,9 km/h (1 Bft)
23.08.2013 20:50 15,4 C 77 % 1019,5 hPa 0,0 l/m 1,4 km/h (1 Bft) O-NO 67 11,4 C 15,2 C 1,8 km/h (1 Bft)
23.08.2013 20:55 15,5 C 77 % 1019,5 hPa 0,0 l/m 1,4 km/h (1 Bft) O 90 11,5 C 15,0 C 1,6 km/h (1 Bft)
23.08.2013 21:00 15,2 C 77 % 1019,3 hPa 0,0 l/m 1,1 km/h (1 Bft) O 90 11,2 C 14,8 C 0,0 km/h (0 Bft)
23.08.2013 21:05 14,7 C 78 % 1019,3 hPa 0,0 l/m 0,2 km/h (0 Bft) O-SO 112 10,9 C 14,5 C 0,0 km/h (0 Bft)
23.08.2013 21:10 14,8 C 78 % 1019,3 hPa 0,0 l/m 0,0 km/h (0 Bft) O 90 11,0 C 14,4 C 0,0 km/h (0 Bft)
23.08.2013 21:15 14,7 C 78 % 1019,3 hPa 0,0 l/m 0,5 km/h (0 Bft) O-NO 67 10,9 C 14,3 C 0,0 km/h (0 Bft)
23.08.2013 21:20 14,7 C 79 % 1019,4 hPa 0,0 l/m 0,8 km/h (0 Bft) NO 45 11,1 C 14,2 C 0,0 km/h (0 Bft)
23.08.2013 21:25 14,8 C 79 % 1019,4 hPa 0,0 l/m 1,3 km/h (1 Bft) O 90 11,2 C 14,1 C 2,4 km/h (1 Bft)
23.08.2013 21:30 14,7 C 79 % 1019,4 hPa 0,0 l/m 2,3 km/h (1 Bft) O 90 11,1 C 14,2 C 2,6 km/h (1 Bft)
23.08.2013 21:35 14,5 C 80 % 1019,4 hPa 0,0 l/m 1,8 km/h (1 Bft) O-SO 112 11,1 C 14,2 C 0,0 km/h (0 Bft)
23.08.2013 21:40 14,3 C 80 % 1019,6 hPa 0,0 l/m 0,6 km/h (0 Bft) O-NO 67 10,9 C 14,1 C 0,0 km/h (0 Bft)
23.08.2013 21:45 14,6 C 81 % 1019,6 hPa 0,0 l/m 1,3 km/h (1 Bft) NO 45 11,4 C 14,0 C 2,9 km/h (1 Bft)
23.08.2013 21:50 14,7 C 81 % 1019,6 hPa 0,0 l/m 2,1 km/h (1 Bft) NO 45 11,5 C 14,1 C 3,9 km/h (1 Bft)
23.08.2013 21:55 14,5 C 81 % 1019,6 hPa 0,0 l/m 2,1 km/h (1 Bft) NO 45 11,3 C 14,2 C 0,0 km/h (0 Bft)
23.08.2013 22:00 14,4 C 81 % 1019,4 hPa 0,0 l/m 1,3 km/h (1 Bft) O-SO 112 11,2 C 14,1 C 0,0 km/h (0 Bft)
23.08.2013 22:05 14,3 C 82 % 1019,4 hPa 0,0 l/m 0,2 km/h (0 Bft) NO 45 11,3 C 13,9 C 0,0 km/h (0 Bft)
23.08.2013 22:10 14,3 C 82 % 1019,4 hPa 0,0 l/m 0,2 km/h (0 Bft) O 90 11,3 C 13,8 C 0,0 km/h (0 Bft)
23.08.2013 22:15 14,1 C 82 % 1019,4 hPa 0,0 l/m 0,2 km/h (0 Bft) SO 135 11,1 C 13,8 C 0,0 km/h (0 Bft)
23.08.2013 22:20 14,1 C 82 % 1019,2 hPa 0,0 l/m 0,2 km/h (0 Bft) NO 45 11,1 C 13,7 C 0,0 km/h (0 Bft)
23.08.2013 22:25 14,0 C 82 % 1019,2 hPa 0,0 l/m 0,2 km/h (0 Bft) O 90 11,0 C 13,5 C 0,0 km/h (0 Bft)
23.08.2013 22:30 14,0 C 82 % 1019,2 hPa 0,0 l/m 0,2 km/h (0 Bft) O-SO 112 11,0 C 13,4 C 0,0 km/h (0 Bft)
23.08.2013 22:35 13,8 C 83 % 1019,2 hPa 0,0 l/m 0,0 km/h (0 Bft) O 90 11,0 C 13,3 C 0,0 km/h (0 Bft)
23.08.2013 22:40 13,8 C 83 % 1019,2 hPa 0,0 l/m 0,3 km/h (0 Bft) NO 45 11,0 C 13,2 C 2,3 km/h (1 Bft)
23.08.2013 22:45 13,8 C 83 % 1019,2 hPa 0,0 l/m 1,6 km/h (1 Bft) O-NO 67 11,0 C 13,2 C 2,9 km/h (1 Bft)
23.08.2013 22:50 13,6 C 84 % 1019,2 hPa 0,0 l/m 1,9 km/h (1 Bft) O 90 10,9 C 13,1 C 2,4 km/h (1 Bft)
23.08.2013 22:55 13,7 C 84 % 1019,2 hPa 0,0 l/m 1,9 km/h (1 Bft) O-NO 67 11,0 C 13,1 C 3,1 km/h (1 Bft)
23.08.2013 23:00 13,8 C 84 % 1019,1 hPa 0,0 l/m 2,6 km/h (1 Bft) O-NO 67 11,1 C 13,2 C 3,1 km/h (1 Bft)
23.08.2013 23:05 13,6 C 85 % 1019,1 hPa 0,0 l/m 2,3 km/h (1 Bft) O-NO 67 11,1 C 13,2 C 0,0 km/h (0 Bft)
23.08.2013 23:10 13,6 C 85 % 1019,1 hPa 0,0 l/m 1,1 km/h (1 Bft) O 90 11,1 C 13,1 C 0,0 km/h (0 Bft)
23.08.2013 23:15 13,5 C 85 % 1019,1 hPa 0,0 l/m 0,3 km/h (0 Bft) O 90 11,0 C 12,8 C 0,0 km/h (0 Bft)
23.08.2013 23:20 13,4 C 85 % 1019,1 hPa 0,0 l/m 1,8 km/h (1 Bft) O 90 10,9 C 12,7 C 5,6 km/h (1 Bft)
23.08.2013 23:25 13,4 C 85 % 1019,1 hPa 0,0 l/m 3,7 km/h (1 Bft) NO 45 10,9 C 12,8 C 3,7 km/h (1 Bft)
23.08.2013 23:30 13,0 C 85 % 1019,1 hPa 0,0 l/m 3,4 km/h (1 Bft) O 90 10,5 C 12,7 C 1,8 km/h (1 Bft)
23.08.2013 23:35 13,0 C 86 % 1019,1 hPa 0,0 l/m 1,4 km/h (1 Bft) NO 45 10,7 C 12,4 C 3,4 km/h (1 Bft)
23.08.2013 23:40 12,8 C 86 % 1019,0 hPa 0,0 l/m 1,9 km/h (1 Bft) O-SO 112 10,5 C 12,4 C 3,2 km/h (1 Bft)
23.08.2013 23:45 12,9 C 87 % 1019,0 hPa 0,0 l/m 3,4 km/h (1 Bft) O-NO 67 10,8 C 12,3 C 5,1 km/h (1 Bft)
23.08.2013 23:50 12,9 C 87 % 1019,0 hPa 0,0 l/m 3,2 km/h (1 Bft) O 90 10,8 C 12,4 C 4,0 km/h (1 Bft)
23.08.2013 23:55 12,8 C 87 % 1019,0 hPa 0,0 l/m 1,9 km/h (1 Bft) NO 45 10,7 C 12,3 C 0,0 km/h (0 Bft)
_ Min-Zeit 06:25 12:25 23:55 - 22:35 - - 04:25 05:30 23:55
Minimum _ 8,7 C 50 % 1019,0 hPa - 0,0 km/h (0 Bft) - - 7,4 C 8,6 C 0,0 km/h (0 Bft)
_ Max-Zeit 12:10 08:00 13:20 23:55 16:40 - - 08:50 12:20 13:20
Maximum _ 24,9 C 92 % 1021,1 hPa 0,0 l/m 4,5 km/h
S-SO (1 Bft)
- - 15,1 C 27,9 C 9,8 km/h
W-SW (2 Bft)
Durchschnitt _ 15,9 C 75 % 1020,0 hPa #0,0 l/m 1,3 km/h (1 Bft) N-NW - 11,2 C 16,9 C 1,7 km/h (1 Bft)